User: anonymous   Login
Location: Lussas
(44.6119°N, 4.4726°E)
Time: 21:39:00
(UTC+00:00)
Language:

USA 238 - Orbit

View from above orbital plane
View from above orbital plane
View from above satellite
View from above satellite

Ground track
Ground track

The orbit data is extracted from the following two-line orbital elements,

1 38758U 12048A   21056.17631803 0.00000010  00000-0  16997-4 0    09
2 38758  63.4438 108.0180 0146870 359.5111   0.4889 13.40817848    03
Epoch (UTC): 25 February 2021 04:13:53
Eccentricity: 0.0146870
inclination: 63.4438°
perigee height: 996 km
apogee height: 1216 km
right ascension of ascending node: 108.0180°
argument of perigee: 359.5111°
revolutions per day: 13.40817848
mean anomaly at epoch: 0.4889°
orbit number at epoch: 0

The dashed part of the orbit path shows where the satellite is in the earth's shadow,  

DLR